Location: Basse Occidentale du Courleau
(48.3833°N, 4.8333°W)
Time: 19:40:27
(UTC+00:00)

Cosmos 1758 Rocket - Pass Details

Date: 05 July 2020
Orbit: 601 x 637 km, 82.5° (Epoch: 05 August)

Event Time Altitude Azimuth Distance (km) Brightness Sun altitude
Rises 21:08:15 0° 180° (S) 2,923 6.6 -6.6°
Reaches altitude 10° 21:10:29 10° 177° (S) 2,020 5.8 -6.8°
Maximum altitude 21:14:56 65° 96° (E) 704 3.7 -7.3°
Drops below altitude 10° 21:19:24 10° 15° (NNE) 2,034 6.7 -7.8°
Sets 21:21:40 0° 13° (NNE) 2,944 7.6 -8.1°
